Time,TemperatureF,DewpointF,PressureIn,WindDirection,WindDirectionDegrees,WindSpeedMPH,WindSpeedGustMPH,Humidity,HourlyPrecipIn,Conditions,Clouds,dailyrainin,SoftwareType,DateUTC
2013-03-27 00:00:00,29.0,24.8,29.99,ESE,109,0.0,13.0,84,0.00,,,0.00,Wunderground v.1.15,2013-03-27 04:00:00,
2013-03-27 00:05:00,29.1,24.9,29.99,ESE,108,0.0,13.0,84,0.00,,,0.00,Wunderground v.1.15,2013-03-27 04:05:00,
2013-03-27 00:10:00,29.2,25.0,29.99,ESE,108,0.0,13.0,84,0.00,,,0.00,Wunderground v.1.15,2013-03-27 04:10:00,
2013-03-27 00:15:00,29.3,25.1,29.99,ESE,108,0.0,13.0,84,0.00,,,0.00,Wunderground v.1.15,2013-03-27 04:15:00,
2013-03-27 00:20:00,29.3,25.1,30.00,ESE,109,0.0,13.0,84,0.00,,,0.00,Wunderground v.1.15,2013-03-27 04:20:00,
2013-03-27 00:25:00,29.6,25.1,29.99,SSE,152,0.0,13.0,83,0.00,,,0.00,Wunderground v.1.15,2013-03-27 04:25:00,
2013-03-27 00:30:00,29.8,25.3,29.99,SSE,161,0.0,13.0,83,0.00,,,0.00,Wunderground v.1.15,2013-03-27 04:30:00,
2013-03-27 00:35:00,30.0,25.5,29.99,SW,222,0.0,13.0,83,0.00,,,0.00,Wunderground v.1.15,2013-03-27 04:35:00,
2013-03-27 00:40:00,30.1,25.6,30.00,SW,223,0.0,13.0,83,0.00,,,0.00,Wunderground v.1.15,2013-03-27 04:40:00,
2013-03-27 00:45:00,30.1,25.6,30.00,SW,222,0.0,13.0,83,0.00,,,0.00,Wunderground v.1.15,2013-03-27 04:45:00,
2013-03-27 00:50:00,30.1,25.6,30.00,SW,223,0.0,13.0,83,0.00,,,0.00,Wunderground v.1.15,2013-03-27 04:50:00,
2013-03-27 00:55:00,30.2,25.7,30.00,SW,222,0.0,13.0,83,0.00,,,0.00,Wunderground v.1.15,2013-03-27 04:55:00,
2013-03-27 01:00:00,30.3,26.0,30.00,SW,222,0.0,13.0,84,0.00,,,0.00,Wunderground v.1.15,2013-03-27 05:00:00,
2013-03-27 01:05:00,30.4,26.1,30.00,South,173,0.0,13.0,84,0.00,,,0.00,Wunderground v.1.15,2013-03-27 05:05:00,
2013-03-27 01:10:00,30.5,26.2,29.99,SSW,204,1.0,13.0,84,0.00,,,0.00,Wunderground v.1.15,2013-03-27 05:10:00,
2013-03-27 01:15:00,30.8,26.2,29.99,SE,129,1.0,13.0,83,0.00,,,0.00,Wunderground v.1.15,2013-03-27 05:15:00,
2013-03-27 01:20:00,30.8,26.2,29.99,East,96,1.0,13.0,83,0.00,,,0.00,Wunderground v.1.15,2013-03-27 05:20:00,
2013-03-27 01:25:00,30.9,26.6,29.99,East,101,1.0,13.0,84,0.00,,,0.00,Wunderground v.1.15,2013-03-27 05:25:00,
2013-03-27 01:30:00,31.1,26.8,29.99,ESE,112,1.0,1.0,84,0.00,,,0.00,Wunderground v.1.15,2013-03-27 05:30:00,
2013-03-27 01:35:00,31.3,27.0,29.99,ESE,112,0.0,13.0,84,0.00,,,0.00,Wunderground v.1.15,2013-03-27 05:35:00,
2013-03-27 01:40:00,31.3,26.7,29.99,ESE,112,0.0,13.0,83,0.00,,,0.00,Wunderground v.1.15,2013-03-27 05:40:00,
2013-03-27 01:45:00,31.2,26.6,29.99,ESE,112,0.0,13.0,83,0.00,,,0.00,Wunderground v.1.15,2013-03-27 05:45:00,
2013-03-27 01:50:00,31.0,26.7,29.99,SW,214,0.0,13.0,84,0.00,,,0.00,Wunderground v.1.15,2013-03-27 05:50:00,
2013-03-27 01:55:00,31.0,26.7,29.99,SW,223,0.0,13.0,84,0.00,,,0.00,Wunderground v.1.15,2013-03-27 05:55:00,
2013-03-27 02:00:00,30.7,26.4,29.99,SW,223,0.0,13.0,84,0.00,,,0.00,Wunderground v.1.15,2013-03-27 06:00:00,
2013-03-27 02:05:00,30.6,26.6,29.99,SSW,212,0.0,13.0,85,0.00,,,0.00,Wunderground v.1.15,2013-03-27 06:05:00,
2013-03-27 02:10:00,30.4,26.4,29.99,SSW,212,0.0,13.0,85,0.00,,,0.00,Wunderground v.1.15,2013-03-27 06:10:00,
2013-03-27 02:15:00,30.5,26.5,29.99,SSW,212,0.0,13.0,85,0.00,,,0.00,Wunderground v.1.15,2013-03-27 06:15:00,
2013-03-27 02:20:00,30.4,26.1,29.99,SSW,212,0.0,13.0,84,0.00,,,0.00,Wunderground v.1.15,2013-03-27 06:20:00,
2013-03-27 02:25:00,30.0,26.0,29.99,East,97,0.0,13.0,85,0.00,,,0.00,Wunderground v.1.15,2013-03-27 06:25:00,
2013-03-27 02:35:00,29.7,26.0,29.99,East,97,0.0,13.0,86,0.00,,,0.00,Wunderground v.1.15,2013-03-27 06:35:00,
2013-03-27 02:40:00,29.4,25.7,29.99,East,98,0.0,13.0,86,0.00,,,0.00,Wunderground v.1.15,2013-03-27 06:40:00,
2013-03-27 02:50:00,29.1,25.7,29.99,East,98,0.0,13.0,87,0.00,,,0.00,Wunderground v.1.15,2013-03-27 06:50:00,
2013-03-27 02:55:00,29.2,25.8,29.98,ESE,116,0.0,13.0,87,0.00,,,0.00,Wunderground v.1.15,2013-03-27 06:55:00,
2013-03-27 03:00:00,29.0,25.6,29.98,ESE,114,0.0,13.0,87,0.00,,,0.00,Wunderground v.1.15,2013-03-27 07:00:00,
2013-03-27 03:05:00,28.9,25.8,29.98,ENE,67,0.0,13.0,88,0.00,,,0.00,Wunderground v.1.15,2013-03-27 07:05:00,
2013-03-27 03:10:00,29.2,26.1,29.98,East,86,1.0,1.0,88,0.00,,,0.00,Wunderground v.1.15,2013-03-27 07:10:00,
2013-03-27 03:15:00,29.3,26.2,29.98,East,86,0.0,13.0,88,0.00,,,0.00,Wunderground v.1.15,2013-03-27 07:15:00,
2013-03-27 03:20:00,29.0,25.6,29.98,WNW,284,1.0,1.0,87,0.00,,,0.00,Wunderground v.1.15,2013-03-27 07:20:00,
2013-03-27 03:25:00,28.8,25.7,29.98,WNW,284,1.0,13.0,88,0.00,,,0.00,Wunderground v.1.15,2013-03-27 07:25:00,
2013-03-27 03:30:00,28.7,25.6,29.98,ESE,117,0.0,13.0,88,0.00,,,0.00,Wunderground v.1.15,2013-03-27 07:30:00,
2013-03-27 03:35:00,29.0,26.2,29.98,ESE,120,1.0,13.0,89,0.00,,,0.00,Wunderground v.1.15,2013-03-27 07:35:00,
2013-03-27 03:40:00,29.2,26.1,29.97,West,274,1.0,1.0,88,0.00,,,0.00,Wunderground v.1.15,2013-03-27 07:40:00,
2013-03-27 03:45:00,29.2,26.1,29.97,SSE,150,0.0,13.0,88,0.00,,,0.00,Wunderground v.1.15,2013-03-27 07:45:00,
2013-03-27 03:50:00,29.0,25.9,29.97,SSE,158,0.0,13.0,88,0.00,,,0.00,Wunderground v.1.15,2013-03-27 07:50:00,
2013-03-27 03:55:00,29.0,25.9,29.97,ENE,77,1.0,13.0,88,0.00,,,0.00,Wunderground v.1.15,2013-03-27 07:55:00,
2013-03-27 04:00:00,29.0,25.9,29.97,NNW,333,1.0,1.0,88,0.00,,,0.00,Wunderground v.1.15,2013-03-27 08:00:00,
2013-03-27 04:05:00,29.0,25.9,29.97,NNW,333,0.0,13.0,88,0.00,,,0.00,Wunderground v.1.15,2013-03-27 08:05:00,
2013-03-27 04:10:00,28.9,25.5,29.98,WNW,290,1.0,13.0,87,0.00,,,0.00,Wunderground v.1.15,2013-03-27 08:10:00,
2013-03-27 04:15:00,28.7,25.6,29.98,WNW,286,1.0,13.0,88,0.00,,,0.00,Wunderground v.1.15,2013-03-27 08:15:00,
2013-03-27 04:20:00,28.6,25.5,29.97,WNW,287,0.0,13.0,88,0.00,,,0.00,Wunderground v.1.15,2013-03-27 08:20:00,
2013-03-27 04:25:00,28.6,25.8,29.97,WNW,285,0.0,13.0,89,0.00,,,0.00,Wunderground v.1.15,2013-03-27 08:25:00,
2013-03-27 04:30:00,28.5,25.4,29.97,WSW,242,0.0,13.0,88,0.00,,,0.00,Wunderground v.1.15,2013-03-27 08:30:00,
2013-03-27 04:35:00,28.6,25.8,29.97,SE,129,0.0,13.0,89,0.00,,,0.00,Wunderground v.1.15,2013-03-27 08:35:00,
2013-03-27 04:40:00,28.8,26.0,29.97,SE,132,0.0,13.0,89,0.00,,,0.00,Wunderground v.1.15,2013-03-27 08:40:00,
2013-03-27 04:45:00,28.7,25.6,29.97,SE,133,0.0,13.0,88,0.00,,,0.00,Wunderground v.1.15,2013-03-27 08:45:00,
2013-03-27 04:50:00,28.4,25.3,29.98,SE,132,0.0,13.0,88,0.00,,,0.00,Wunderground v.1.15,2013-03-27 08:50:00,
2013-03-27 04:55:00,28.1,25.0,29.98,SE,132,0.0,13.0,88,0.00,,,0.00,Wunderground v.1.15,2013-03-27 08:55:00,
2013-03-27 05:00:00,27.8,24.7,29.98,SE,133,0.0,13.0,88,0.00,,,0.00,Wunderground v.1.15,2013-03-27 09:00:00,
2013-03-27 05:05:00,27.6,24.5,29.98,SE,133,0.0,13.0,88,0.00,,,0.00,Wunderground v.1.15,2013-03-27 09:05:00,
2013-03-27 05:10:00,27.3,24.5,29.98,SE,132,0.0,13.0,89,0.00,,,0.00,Wunderground v.1.15,2013-03-27 09:10:00,
2013-03-27 05:15:00,27.2,24.4,29.98,SE,133,0.0,13.0,89,0.00,,,0.00,Wunderground v.1.15,2013-03-27 09:15:00,
2013-03-27 05:20:00,27.3,24.8,29.98,SE,133,0.0,13.0,90,0.00,,,0.00,Wunderground v.1.15,2013-03-27 09:20:00,
2013-03-27 05:25:00,27.4,24.9,29.98,SE,133,0.0,13.0,90,0.00,,,0.00,Wunderground v.1.15,2013-03-27 09:25:00,
2013-03-27 05:30:00,27.3,24.8,29.98,SE,133,0.0,13.0,90,0.00,,,0.00,Wunderground v.1.15,2013-03-27 09:30:00,
2013-03-27 05:35:00,27.1,24.6,29.98,SE,132,0.0,13.0,90,0.00,,,0.00,Wunderground v.1.15,2013-03-27 09:35:00,
2013-03-27 05:40:00,27.1,24.6,29.98,SE,133,0.0,13.0,90,0.00,,,0.00,Wunderground v.1.15,2013-03-27 09:40:00,
2013-03-27 05:45:00,26.9,24.4,29.99,SE,133,0.0,13.0,90,0.00,,,0.00,Wunderground v.1.15,2013-03-27 09:45:00,
2013-03-27 05:50:00,26.9,24.4,29.99,SE,133,0.0,13.0,90,0.00,,,0.00,Wunderground v.1.15,2013-03-27 09:50:00,
2013-03-27 05:55:00,26.7,24.2,29.99,SE,132,0.0,13.0,90,0.00,,,0.00,Wunderground v.1.15,2013-03-27 09:55:00,
2013-03-27 06:00:00,26.6,24.1,29.99,SE,132,0.0,13.0,90,0.00,,,0.00,Wunderground v.1.15,2013-03-27 10:00:00,
2013-03-27 06:05:00,26.8,24.5,29.99,SE,133,0.0,13.0,91,0.00,,,0.00,Wunderground v.1.15,2013-03-27 10:05:00,
2013-03-27 06:10:00,26.9,24.6,29.99,SE,132,0.0,13.0,91,0.00,,,0.00,Wunderground v.1.15,2013-03-27 10:10:00,
2013-03-27 06:15:00,26.8,24.5,29.99,SE,133,0.0,13.0,91,0.00,,,0.00,Wunderground v.1.15,2013-03-27 10:15:00,
2013-03-27 06:20:00,26.6,24.1,29.99,SE,132,0.0,13.0,90,0.00,,,0.00,Wunderground v.1.15,2013-03-27 10:20:00,
2013-03-27 06:25:00,26.3,23.8,30.00,SE,133,0.0,13.0,90,0.00,,,0.00,Wunderground v.1.15,2013-03-27 10:25:00,
2013-03-27 06:30:00,26.2,23.9,30.00,SE,133,0.0,13.0,91,0.00,,,0.00,Wunderground v.1.15,2013-03-27 10:30:00,
2013-03-27 06:40:00,26.0,23.7,30.00,SE,133,0.0,13.0,91,0.00,,,0.00,Wunderground v.1.15,2013-03-27 10:40:00,
2013-03-27 06:45:00,25.8,23.5,30.00,SE,133,0.0,13.0,91,0.00,,,0.00,Wunderground v.1.15,2013-03-27 10:45:00,
2013-03-27 06:50:00,25.7,23.4,30.00,SE,133,0.0,13.0,91,0.00,,,0.00,Wunderground v.1.15,2013-03-27 10:50:00,
2013-03-27 06:55:00,25.7,23.4,30.00,SE,133,0.0,13.0,91,0.00,,,0.00,Wunderground v.1.15,2013-03-27 10:55:00,
2013-03-27 07:00:00,25.7,23.7,30.01,SE,132,0.0,13.0,92,0.00,,,0.00,Wunderground v.1.15,2013-03-27 11:00:00,
2013-03-27 07:10:00,25.7,23.4,30.01,SE,132,0.0,13.0,91,0.00,,,0.00,Wunderground v.1.15,2013-03-27 11:10:00,
2013-03-27 07:15:00,25.6,23.3,30.01,SE,132,0.0,13.0,91,0.00,,,0.00,Wunderground v.1.15,2013-03-27 11:15:00,
2013-03-27 07:20:00,25.6,23.6,30.01,SE,133,0.0,13.0,92,0.00,,,0.00,Wunderground v.1.15,2013-03-27 11:20:00,
2013-03-27 07:25:00,25.8,23.8,30.01,SE,132,0.0,13.0,92,0.00,,,0.00,Wunderground v.1.15,2013-03-27 11:25:00,
2013-03-27 07:30:00,25.9,23.9,30.01,SE,132,0.0,13.0,92,0.00,,,0.00,Wunderground v.1.15,2013-03-27 11:30:00,
2013-03-27 07:40:00,27.0,25.2,30.01,SE,132,0.0,13.0,93,0.00,,,0.00,Wunderground v.1.15,2013-03-27 11:40:00,
2013-03-27 07:45:00,27.8,26.0,30.01,SE,132,0.0,13.0,93,0.00,,,0.00,Wunderground v.1.15,2013-03-27 11:45:00,
2013-03-27 07:50:00,28.3,26.3,30.02,SE,132,0.0,13.0,92,0.00,,,0.00,Wunderground v.1.15,2013-03-27 11:50:00,
2013-03-27 07:55:00,28.9,26.6,30.02,SSW,211,0.0,13.0,91,0.00,,,0.00,Wunderground v.1.15,2013-03-27 11:55:00,
2013-03-27 08:00:00,29.5,27.2,30.02,SSW,211,0.0,13.0,91,0.00,,,0.00,Wunderground v.1.15,2013-03-27 12:00:00,
2013-03-27 08:05:00,29.7,27.1,30.02,SSW,212,0.0,13.0,90,0.00,,,0.00,Wunderground v.1.15,2013-03-27 12:05:00,
2013-03-27 08:10:00,30.3,27.7,30.02,SSW,210,0.0,13.0,90,0.00,,,0.00,Wunderground v.1.15,2013-03-27 12:10:00,
2013-03-27 08:15:00,30.6,27.7,30.02,SSW,210,0.0,13.0,89,0.00,,,0.00,Wunderground v.1.15,2013-03-27 12:15:00,
2013-03-27 08:20:00,30.8,27.7,30.02,SSW,210,0.0,13.0,88,0.00,,,0.00,Wunderground v.1.15,2013-03-27 12:20:00,
2013-03-27 08:25:00,31.0,27.6,30.02,East,90,0.0,13.0,87,0.00,,,0.00,Wunderground v.1.15,2013-03-27 12:25:00,
2013-03-27 08:30:00,31.1,27.7,30.02,East,90,0.0,13.0,87,0.00,,,0.00,Wunderground v.1.15,2013-03-27 12:30:00,
2013-03-27 08:35:00,31.4,28.0,30.02,East,90,0.0,13.0,87,0.00,,,0.00,Wunderground v.1.15,2013-03-27 12:35:00,
2013-03-27 08:40:00,32.3,28.3,30.03,East,91,1.0,13.0,85,0.00,,,0.00,Wunderground v.1.15,2013-03-27 12:40:00,
2013-03-27 08:45:00,33.3,28.1,30.03,East,99,1.0,13.0,81,0.00,,,0.00,Wunderground v.1.15,2013-03-27 12:45:00,
2013-03-27 08:50:00,34.0,28.2,30.03,ENE,69,2.0,13.0,79,0.00,,,0.00,Wunderground v.1.15,2013-03-27 12:50:00,
2013-03-27 08:55:00,34.4,27.6,30.03,ESE,117,1.0,13.0,76,0.00,,,0.00,Wunderground v.1.15,2013-03-27 12:55:00,
2013-03-27 09:00:00,35.0,27.9,30.03,ENE,58,1.0,13.0,75,0.00,,,0.00,Wunderground v.1.15,2013-03-27 13:00:00,
2013-03-27 09:05:00,35.5,27.7,30.03,ESE,115,1.0,13.0,73,0.00,,,0.00,Wunderground v.1.15,2013-03-27 13:05:00,
2013-03-27 09:10:00,35.8,28.0,30.04,NW,326,1.0,1.0,73,0.00,,,0.00,Wunderground v.1.15,2013-03-27 13:10:00,
2013-03-27 09:15:00,36.1,28.3,30.03,NE,54,1.0,13.0,73,0.00,,,0.00,Wunderground v.1.15,2013-03-27 13:15:00,
2013-03-27 09:20:00,36.3,27.8,30.03,NE,47,1.0,13.0,71,0.00,,,0.00,Wunderground v.1.15,2013-03-27 13:20:00,
2013-03-27 09:25:00,36.2,27.7,30.04,West,278,2.0,13.0,71,0.00,,,0.00,Wunderground v.1.15,2013-03-27 13:25:00,
2013-03-27 09:30:00,36.1,27.6,30.03,NW,315,3.0,13.0,71,0.00,,,0.00,Wunderground v.1.15,2013-03-27 13:30:00,
2013-03-27 09:35:00,36.1,27.6,30.04,West,281,2.0,13.0,71,0.00,,,0.00,Wunderground v.1.15,2013-03-27 13:35:00,
2013-03-27 09:40:00,36.5,27.6,30.03,West,279,2.0,13.0,70,0.00,,,0.00,Wunderground v.1.15,2013-03-27 13:40:00,
2013-03-27 09:45:00,36.5,28.0,30.03,WSW,249,2.0,13.0,71,0.00,,,0.00,Wunderground v.1.15,2013-03-27 13:45:00,
2013-03-27 09:50:00,36.9,28.7,30.04,NNW,329,2.0,13.0,72,0.00,,,0.00,Wunderground v.1.15,2013-03-27 13:50:00,
2013-03-27 09:55:00,37.0,28.5,30.04,North,349,2.0,13.0,71,0.00,,,0.00,Wunderground v.1.15,2013-03-27 13:55:00,
2013-03-27 10:00:00,37.0,28.5,30.03,NNW,332,2.0,2.0,71,0.00,,,0.00,Wunderground v.1.15,2013-03-27 14:00:00,
2013-03-27 10:05:00,37.3,28.4,30.04,WNW,301,2.0,13.0,70,0.00,,,0.00,Wunderground v.1.15,2013-03-27 14:05:00,
2013-03-27 10:10:00,37.4,28.5,30.03,NW,316,3.0,13.0,70,0.00,,,0.00,Wunderground v.1.15,2013-03-27 14:10:00,
2013-03-27 10:15:00,37.6,28.7,30.04,West,274,3.0,13.0,70,0.00,,,0.00,Wunderground v.1.15,2013-03-27 14:15:00,
2013-03-27 10:20:00,37.9,29.0,30.04,NNW,328,3.0,3.0,70,0.00,,,0.00,Wunderground v.1.15,2013-03-27 14:20:00,
2013-03-27 10:25:00,38.1,29.2,30.04,NNW,338,3.0,13.0,70,0.00,,,0.00,Wunderground v.1.15,2013-03-27 14:25:00,
2013-03-27 10:30:00,38.1,29.2,30.04,West,276,3.0,3.0,70,0.00,,,0.00,Wunderground v.1.15,2013-03-27 14:30:00,
2013-03-27 10:35:00,38.3,29.0,30.04,WNW,294,3.0,13.0,69,0.00,,,0.00,Wunderground v.1.15,2013-03-27 14:35:00,
2013-03-27 10:40:00,39.0,29.3,30.04,WNW,294,3.0,13.0,68,0.00,,,0.00,Wunderground v.1.15,2013-03-27 14:40:00,
2013-03-27 10:45:00,39.1,29.1,30.04,WNW,300,3.0,13.0,67,0.00,,,0.00,Wunderground v.1.15,2013-03-27 14:45:00,
2013-03-27 10:50:00,38.8,28.8,30.04,West,278,4.0,13.0,67,0.00,,,0.00,Wunderground v.1.15,2013-03-27 14:50:00,
2013-03-27 10:55:00,38.7,29.0,30.03,West,264,4.0,13.0,68,0.00,,,0.00,Wunderground v.1.15,2013-03-27 14:55:00,
2013-03-27 11:00:00,38.9,29.6,30.04,NW,319,4.0,4.0,69,0.00,,,0.00,Wunderground v.1.15,2013-03-27 15:00:00,
2013-03-27 11:05:00,38.7,29.0,30.04,NW,306,3.0,13.0,68,0.00,,,0.00,Wunderground v.1.15,2013-03-27 15:05:00,
2013-03-27 11:10:00,39.0,29.3,30.04,NW,321,2.0,2.0,68,0.00,,,0.00,Wunderground v.1.15,2013-03-27 15:10:00,
2013-03-27 11:15:00,38.9,29.2,30.04,NNW,336,2.0,3.0,68,0.00,,,0.00,Wunderground v.1.15,2013-03-27 15:15:00,
2013-03-27 11:20:00,39.0,29.3,30.04,NNW,335,3.0,13.0,68,0.00,,,0.00,Wunderground v.1.15,2013-03-27 15:20:00,
2013-03-27 11:25:00,39.0,29.3,30.04,NNW,345,3.0,13.0,68,0.00,,,0.00,Wunderground v.1.15,2013-03-27 15:25:00,
2013-03-27 11:30:00,39.3,29.3,30.04,West,277,4.0,13.0,67,0.00,,,0.00,Wunderground v.1.15,2013-03-27 15:30:00,
2013-03-27 11:35:00,39.4,29.3,30.04,SW,229,4.0,13.0,67,0.00,,,0.00,Wunderground v.1.15,2013-03-27 15:35:00,
2013-03-27 11:40:00,39.7,29.6,30.04,WNW,299,3.0,13.0,67,0.00,,,0.00,Wunderground v.1.15,2013-03-27 15:40:00,
2013-03-27 11:45:00,40.5,30.0,30.03,NNW,341,3.0,13.0,66,0.00,,,0.00,Wunderground v.1.15,2013-03-27 15:45:00,
2013-03-27 11:50:00,41.0,30.1,30.04,West,274,3.0,13.0,65,0.00,,,0.00,Wunderground v.1.15,2013-03-27 15:50:00,
2013-03-27 11:55:00,41.6,31.1,30.03,WNW,296,3.0,13.0,66,0.00,,,0.00,Wunderground v.1.15,2013-03-27 15:55:00,
2013-03-27 12:00:00,41.4,29.7,30.03,WNW,287,4.0,4.0,63,0.00,,,0.00,Wunderground v.1.15,2013-03-27 16:00:00,
2013-03-27 12:05:00,41.5,29.8,30.03,NNE,16,5.0,5.0,63,0.00,,,0.00,Wunderground v.1.15,2013-03-27 16:05:00,
2013-03-27 12:10:00,42.0,30.7,30.03,NNW,328,4.0,13.0,64,0.00,,,0.00,Wunderground v.1.15,2013-03-27 16:10:00,
2013-03-27 12:15:00,42.4,30.3,30.03,West,262,5.0,13.0,62,0.00,,,0.00,Wunderground v.1.15,2013-03-27 16:15:00,
2013-03-27 12:25:00,43.2,31.1,30.03,WSW,250,4.0,13.0,62,0.00,,,0.00,Wunderground v.1.15,2013-03-27 16:25:00,
2013-03-27 12:30:00,43.4,30.4,30.02,North,349,5.0,13.0,60,0.00,,,0.00,Wunderground v.1.15,2013-03-27 16:30:00,
2013-03-27 12:35:00,43.3,31.1,30.02,WNW,289,5.0,13.0,62,0.00,,,0.00,Wunderground v.1.15,2013-03-27 16:35:00,
2013-03-27 12:40:00,43.9,31.3,30.03,NNW,338,4.0,13.0,61,0.00,,,0.00,Wunderground v.1.15,2013-03-27 16:40:00,
2013-03-27 12:45:00,43.7,30.3,30.03,WNW,302,4.0,13.0,59,0.00,,,0.00,Wunderground v.1.15,2013-03-27 16:45:00,
2013-03-27 12:50:00,43.7,31.1,30.02,NW,321,5.0,5.0,61,0.00,,,0.00,Wunderground v.1.15,2013-03-27 16:50:00,
2013-03-27 12:55:00,43.3,30.7,30.02,NNW,330,5.0,13.0,61,0.00,,,0.00,Wunderground v.1.15,2013-03-27 16:55:00,
2013-03-27 13:00:00,42.6,30.5,30.02,NW,325,4.0,4.0,62,0.00,,,0.00,Wunderground v.1.15,2013-03-27 17:00:00,
2013-03-27 13:05:00,42.5,30.0,30.03,NW,316,4.0,13.0,61,0.00,,,0.00,Wunderground v.1.15,2013-03-27 17:05:00,
2013-03-27 13:10:00,42.1,30.4,30.02,North,4,4.0,13.0,63,0.00,,,0.00,Wunderground v.1.15,2013-03-27 17:10:00,
2013-03-27 13:15:00,41.7,30.4,30.02,West,280,4.0,13.0,64,0.00,,,0.00,Wunderground v.1.15,2013-03-27 17:15:00,
2013-03-27 13:25:00,42.7,29.8,30.02,WNW,289,3.0,13.0,60,0.00,,,0.00,Wunderground v.1.15,2013-03-27 17:25:00,
2013-03-27 13:30:00,42.0,31.1,30.03,West,262,4.0,4.0,65,0.00,,,0.00,Wunderground v.1.15,2013-03-27 17:30:00,
2013-03-27 13:35:00,40.1,30.4,30.03,WNW,300,6.0,6.0,68,0.00,,,0.00,Wunderground v.1.15,2013-03-27 17:35:00,
2013-03-27 13:40:00,39.5,30.5,30.02,NW,315,3.0,3.0,70,0.00,,,0.00,Wunderground v.1.15,2013-03-27 17:40:00,
2013-03-27 13:45:00,39.9,30.9,30.02,West,281,2.0,13.0,70,0.00,,,0.00,Wunderground v.1.15,2013-03-27 17:45:00,
2013-03-27 13:50:00,40.9,32.2,30.02,WNW,283,2.0,2.0,71,0.00,,,0.01,Wunderground v.1.15,2013-03-27 17:50:00,
2013-03-27 13:55:00,41.4,31.6,30.02,NNE,16,2.0,4.0,68,0.00,,,0.01,Wunderground v.1.15,2013-03-27 17:55:00,
2013-03-27 14:00:00,42.0,29.9,30.02,NNE,13,4.0,13.0,62,0.00,,,0.01,Wunderground v.1.15,2013-03-27 18:00:00,
2013-03-27 14:05:00,42.8,31.1,30.02,West,264,5.0,13.0,63,0.00,,,0.01,Wunderground v.1.15,2013-03-27 18:05:00,
2013-03-27 14:10:00,42.8,30.7,30.03,West,276,5.0,13.0,62,0.00,,,0.01,Wunderground v.1.15,2013-03-27 18:10:00,
2013-03-27 14:15:00,41.2,31.4,30.03,WNW,283,6.0,13.0,68,0.00,,,0.01,Wunderground v.1.15,2013-03-27 18:15:00,
2013-03-27 14:20:00,39.6,31.7,30.03,West,267,6.0,6.0,73,0.00,,,0.01,Wunderground v.1.15,2013-03-27 18:20:00,
2013-03-27 14:25:00,39.1,30.8,30.03,West,278,5.0,13.0,72,0.00,,,0.01,Wunderground v.1.15,2013-03-27 18:25:00,
2013-03-27 14:30:00,39.3,31.0,30.03,WNW,289,6.0,13.0,72,0.00,,,0.01,Wunderground v.1.15,2013-03-27 18:30:00,
2013-03-27 14:35:00,39.3,31.4,30.03,NNW,338,6.0,13.0,73,0.00,,,0.01,Wunderground v.1.15,2013-03-27 18:35:00,
2013-03-27 14:40:00,39.2,31.3,30.03,NNE,30,6.0,6.0,73,0.00,,,0.01,Wunderground v.1.15,2013-03-27 18:40:00,
2013-03-27 14:45:00,39.6,32.3,30.03,NE,44,5.0,13.0,75,0.00,,,0.01,Wunderground v.1.15,2013-03-27 18:45:00,
2013-03-27 14:50:00,40.1,32.5,30.03,ENE,62,4.0,13.0,74,0.00,,,0.01,Wunderground v.1.15,2013-03-27 18:50:00,
2013-03-27 14:55:00,39.7,31.8,30.04,NE,40,7.0,13.0,73,0.00,,,0.01,Wunderground v.1.15,2013-03-27 18:55:00,
2013-03-27 15:00:00,39.5,31.9,30.04,NNE,15,6.0,6.0,74,0.00,,,0.01,Wunderground v.1.15,2013-03-27 19:00:00,
2013-03-27 15:05:00,39.3,31.7,30.03,WNW,285,3.0,13.0,74,0.00,,,0.01,Wunderground v.1.15,2013-03-27 19:05:00,
2013-03-27 15:10:00,39.0,31.4,30.04,NNW,347,2.0,13.0,74,0.00,,,0.01,Wunderground v.1.15,2013-03-27 19:10:00,
2013-03-27 15:15:00,38.6,31.7,30.04,NE,35,3.0,13.0,76,0.00,,,0.01,Wunderground v.1.15,2013-03-27 19:15:00,
2013-03-27 15:20:00,38.4,32.1,30.04,NNW,332,3.0,3.0,78,0.00,,,0.01,Wunderground v.1.15,2013-03-27 19:20:00,
2013-03-27 15:25:00,38.4,32.5,30.04,WSW,239,2.0,13.0,79,0.00,,,0.01,Wunderground v.1.15,2013-03-27 19:25:00,
2013-03-27 15:30:00,38.6,31.7,30.04,WNW,287,2.0,13.0,76,0.00,,,0.01,Wunderground v.1.15,2013-03-27 19:30:00,
2013-03-27 15:35:00,38.8,31.9,30.04,West,278,3.0,13.0,76,0.00,,,0.01,Wunderground v.1.15,2013-03-27 19:35:00,
2013-03-27 15:45:00,39.8,32.5,30.03,NNW,334,3.0,13.0,75,0.00,,,0.01,Wunderground v.1.15,2013-03-27 19:45:00,
2013-03-27 15:50:00,40.0,32.4,30.03,NNW,338,3.0,13.0,74,0.00,,,0.01,Wunderground v.1.15,2013-03-27 19:50:00,
2013-03-27 15:55:00,40.0,32.7,30.03,NNW,338,3.0,13.0,75,0.00,,,0.01,Wunderground v.1.15,2013-03-27 19:55:00,
2013-03-27 16:00:00,39.9,32.3,30.03,North,6,3.0,3.0,74,0.00,,,0.01,Wunderground v.1.15,2013-03-27 20:00:00,
2013-03-27 16:05:00,39.9,31.9,30.03,WNW,289,3.0,13.0,73,0.00,,,0.01,Wunderground v.1.15,2013-03-27 20:05:00,
2013-03-27 16:10:00,39.7,32.1,30.03,West,264,2.0,2.0,74,0.00,,,0.01,Wunderground v.1.15,2013-03-27 20:10:00,
2013-03-27 16:15:00,39.6,32.3,30.04,WSW,248,2.0,13.0,75,0.00,,,0.01,Wunderground v.1.15,2013-03-27 20:15:00,
2013-03-27 16:20:00,39.3,32.7,30.05,NW,314,2.0,13.0,77,0.00,,,0.02,Wunderground v.1.15,2013-03-27 20:20:00,
2013-03-27 16:25:00,37.5,32.2,30.05,West,267,4.0,13.0,81,0.00,,,0.02,Wunderground v.1.15,2013-03-27 20:25:00,
2013-03-27 16:30:00,36.1,31.4,30.05,West,259,5.0,5.0,83,0.00,,,0.02,Wunderground v.1.15,2013-03-27 20:30:00,
2013-03-27 16:35:00,35.6,31.2,30.05,WNW,288,6.0,6.0,84,0.05,,,0.03,Wunderground v.1.15,2013-03-27 20:35:00,
2013-03-27 16:40:00,35.7,31.3,30.04,West,271,6.0,6.0,84,0.05,,,0.03,Wunderground v.1.15,2013-03-27 20:40:00,
2013-03-27 16:45:00,36.1,31.7,30.04,SW,236,6.0,13.0,84,0.04,,,0.03,Wunderground v.1.15,2013-03-27 20:45:00,
2013-03-27 16:50:00,36.5,31.8,30.04,WNW,293,6.0,13.0,83,0.00,,,0.03,Wunderground v.1.15,2013-03-27 20:50:00,
2013-03-27 16:55:00,37.0,32.3,30.04,West,271,5.0,13.0,83,0.00,,,0.03,Wunderground v.1.15,2013-03-27 20:55:00,
2013-03-27 17:00:00,37.4,32.7,30.04,WNW,294,5.0,13.0,83,0.00,,,0.03,Wunderground v.1.15,2013-03-27 21:00:00,
2013-03-27 17:05:00,38.0,33.6,30.04,NW,305,6.0,13.0,84,0.00,,,0.03,Wunderground v.1.15,2013-03-27 21:05:00,
2013-03-27 17:10:00,38.3,33.0,30.05,West,262,7.0,7.0,81,0.00,,,0.03,Wunderground v.1.15,2013-03-27 21:10:00,
2013-03-27 17:15:00,38.1,32.8,30.05,West,278,7.0,8.0,81,0.00,,,0.03,Wunderground v.1.15,2013-03-27 21:15:00,
2013-03-27 17:20:00,37.9,32.9,30.05,NW,309,7.0,13.0,82,0.00,,,0.03,Wunderground v.1.15,2013-03-27 21:20:00,
2013-03-27 17:25:00,37.6,32.6,30.05,West,275,6.0,13.0,82,0.00,,,0.03,Wunderground v.1.15,2013-03-27 21:25:00,
2013-03-27 17:35:00,37.6,32.9,30.06,NW,321,4.0,13.0,83,0.00,,,0.03,Wunderground v.1.15,2013-03-27 21:35:00,
2013-03-27 17:40:00,37.6,32.6,30.06,WNW,295,5.0,13.0,82,0.00,,,0.03,Wunderground v.1.15,2013-03-27 21:40:00,
2013-03-27 17:45:00,37.5,32.5,30.06,WNW,283,7.0,13.0,82,0.00,,,0.03,Wunderground v.1.15,2013-03-27 21:45:00,
2013-03-27 17:50:00,37.4,32.4,30.06,WNW,286,8.0,13.0,82,0.00,,,0.03,Wunderground v.1.15,2013-03-27 21:50:00,
2013-03-27 17:55:00,37.5,32.8,30.06,WSW,255,6.0,13.0,83,0.00,,,0.03,Wunderground v.1.15,2013-03-27 21:55:00,
2013-03-27 18:00:00,37.4,32.4,30.06,West,273,6.0,6.0,82,0.00,,,0.03,Wunderground v.1.15,2013-03-27 22:00:00,
2013-03-27 18:05:00,37.4,32.4,30.07,WNW,296,5.0,13.0,82,0.00,,,0.03,Wunderground v.1.15,2013-03-27 22:05:00,
2013-03-27 18:10:00,37.3,32.3,30.06,WNW,295,6.0,13.0,82,0.00,,,0.03,Wunderground v.1.15,2013-03-27 22:10:00,
2013-03-27 18:15:00,37.4,32.7,30.07,WNW,299,5.0,13.0,83,0.00,,,0.03,Wunderground v.1.15,2013-03-27 22:15:00,
2013-03-27 18:20:00,37.5,32.5,30.07,West,272,4.0,4.0,82,0.00,,,0.03,Wunderground v.1.15,2013-03-27 22:20:00,
2013-03-27 18:25:00,37.5,32.5,30.07,West,273,4.0,13.0,82,0.00,,,0.03,Wunderground v.1.15,2013-03-27 22:25:00,
2013-03-27 18:30:00,37.4,32.7,30.08,WNW,289,5.0,5.0,83,0.00,,,0.03,Wunderground v.1.15,2013-03-27 22:30:00,
2013-03-27 18:35:00,36.9,32.5,30.09,WSW,251,5.0,13.0,84,0.00,,,0.03,Wunderground v.1.15,2013-03-27 22:35:00,
2013-03-27 18:40:00,35.9,31.8,30.09,NNE,25,5.0,5.0,85,0.00,,,0.04,Wunderground v.1.15,2013-03-27 22:40:00,
2013-03-27 18:45:00,35.3,31.8,30.09,NE,52,4.0,13.0,87,0.00,,,0.04,Wunderground v.1.15,2013-03-27 22:45:00,
2013-03-27 18:50:00,35.1,31.6,30.09,NE,43,2.0,13.0,87,0.00,,,0.04,Wunderground v.1.15,2013-03-27 22:50:00,
2013-03-27 18:55:00,34.8,31.6,30.09,ESE,117,2.0,13.0,88,0.00,,,0.04,Wunderground v.1.15,2013-03-27 22:55:00,
2013-03-27 19:00:00,34.6,31.7,30.09,East,80,2.0,13.0,89,0.00,,,0.04,Wunderground v.1.15,2013-03-27 23:00:00,
2013-03-27 19:05:00,34.4,31.5,30.08,ESE,106,2.0,13.0,89,0.00,,,0.04,Wunderground v.1.15,2013-03-27 23:05:00,
2013-03-27 19:10:00,34.4,31.5,30.08,ESE,102,2.0,13.0,89,0.00,,,0.04,Wunderground v.1.15,2013-03-27 23:10:00,
2013-03-27 19:15:00,34.3,31.4,30.08,ESE,110,1.0,13.0,89,0.00,,,0.04,Wunderground v.1.15,2013-03-27 23:15:00,
2013-03-27 19:20:00,34.2,31.3,30.09,ESE,110,0.0,13.0,89,0.00,,,0.04,Wunderground v.1.15,2013-03-27 23:20:00,
2013-03-27 19:25:00,34.1,31.5,30.09,ESE,110,0.0,13.0,90,0.00,,,0.04,Wunderground v.1.15,2013-03-27 23:25:00,
2013-03-27 19:30:00,34.0,31.4,30.09,ESE,110,0.0,13.0,90,0.00,,,0.04,Wunderground v.1.15,2013-03-27 23:30:00,
2013-03-27 19:35:00,33.7,31.1,30.09,ESE,110,0.0,13.0,90,0.00,,,0.04,Wunderground v.1.15,2013-03-27 23:35:00,
2013-03-27 19:40:00,33.5,30.9,30.09,ESE,110,0.0,13.0,90,0.00,,,0.04,Wunderground v.1.15,2013-03-27 23:40:00,
2013-03-27 19:45:00,33.5,31.2,30.09,West,259,0.0,13.0,91,0.00,,,0.04,Wunderground v.1.15,2013-03-27 23:45:00,
2013-03-27 19:50:00,33.6,31.5,30.09,SW,226,0.0,13.0,92,0.00,,,0.04,Wunderground v.1.15,2013-03-27 23:50:00,
2013-03-27 19:55:00,33.8,31.7,30.10,WNW,293,1.0,13.0,92,0.00,,,0.04,Wunderground v.1.15,2013-03-27 23:55:00,
2013-03-27 20:00:00,34.5,32.1,30.09,West,270,2.0,13.0,91,0.00,,,0.04,Wunderground v.1.15,2013-03-28 00:00:00,
2013-03-27 20:05:00,35.2,32.3,30.10,North,4,4.0,13.0,89,0.00,,,0.04,Wunderground v.1.15,2013-03-28 00:05:00,
2013-03-27 20:10:00,35.5,32.3,30.10,NNW,346,3.0,13.0,88,0.00,,,0.04,Wunderground v.1.15,2013-03-28 00:10:00,
2013-03-27 20:15:00,35.6,32.1,30.10,NNW,336,2.0,13.0,87,0.00,,,0.04,Wunderground v.1.15,2013-03-28 00:15:00,
2013-03-27 20:20:00,35.6,32.1,30.10,NNE,13,2.0,13.0,87,0.00,,,0.04,Wunderground v.1.15,2013-03-28 00:20:00,
2013-03-27 20:25:00,35.4,31.9,30.10,NNW,332,3.0,13.0,87,0.00,,,0.04,Wunderground v.1.15,2013-03-28 00:25:00,
2013-03-27 20:30:00,35.3,32.1,30.11,West,262,2.0,13.0,88,0.00,,,0.04,Wunderground v.1.15,2013-03-28 00:30:00,
2013-03-27 20:35:00,35.1,31.9,30.10,NW,313,2.0,13.0,88,0.00,,,0.04,Wunderground v.1.15,2013-03-28 00:35:00,
2013-03-27 20:40:00,35.1,31.9,30.11,NW,305,2.0,13.0,88,0.00,,,0.04,Wunderground v.1.15,2013-03-28 00:40:00,
2013-03-27 20:45:00,35.0,31.8,30.11,NW,316,1.0,13.0,88,0.00,,,0.04,Wunderground v.1.15,2013-03-28 00:45:00,
2013-03-27 20:50:00,35.0,31.8,30.11,NNE,19,2.0,13.0,88,0.00,,,0.04,Wunderground v.1.15,2013-03-28 00:50:00,
2013-03-27 20:55:00,35.0,31.8,30.11,WNW,295,2.0,13.0,88,0.00,,,0.04,Wunderground v.1.15,2013-03-28 00:55:00,
2013-03-27 21:00:00,35.0,31.8,30.11,West,280,2.0,13.0,88,0.00,,,0.04,Wunderground v.1.15,2013-03-28 01:00:00,
2013-03-27 21:05:00,34.9,32.0,30.11,WNW,288,1.0,13.0,89,0.00,,,0.04,Wunderground v.1.15,2013-03-28 01:05:00,
2013-03-27 21:10:00,34.9,32.0,30.11,WSW,256,0.0,13.0,89,0.00,,,0.05,Wunderground v.1.15,2013-03-28 01:10:00,
2013-03-27 21:15:00,34.8,31.9,30.11,NW,323,1.0,13.0,89,0.00,,,0.05,Wunderground v.1.15,2013-03-28 01:15:00,
2013-03-27 21:20:00,34.8,31.9,30.11,WNW,301,1.0,1.0,89,0.00,,,0.05,Wunderground v.1.15,2013-03-28 01:20:00,
2013-03-27 21:25:00,34.7,31.8,30.11,NNW,332,1.0,3.0,89,0.00,,,0.05,Wunderground v.1.15,2013-03-28 01:25:00,
2013-03-27 21:30:00,34.6,31.7,30.11,West,276,1.0,13.0,89,0.00,,,0.05,Wunderground v.1.15,2013-03-28 01:30:00,
2013-03-27 21:35:00,34.6,31.7,30.11,West,264,1.0,13.0,89,0.00,,,0.05,Wunderground v.1.15,2013-03-28 01:35:00,
2013-03-27 21:40:00,34.6,31.7,30.11,WNW,298,1.0,1.0,89,0.00,,,0.05,Wunderground v.1.15,2013-03-28 01:40:00,
2013-03-27 21:45:00,34.6,31.7,30.11,WNW,298,1.0,13.0,89,0.00,,,0.05,Wunderground v.1.15,2013-03-28 01:45:00,
2013-03-27 21:50:00,34.6,31.7,30.11,West,277,2.0,2.0,89,0.00,,,0.05,Wunderground v.1.15,2013-03-28 01:50:00,
2013-03-27 21:55:00,34.7,31.8,30.11,NW,317,2.0,13.0,89,0.00,,,0.05,Wunderground v.1.15,2013-03-28 01:55:00,
2013-03-27 22:00:00,34.6,31.4,30.11,West,272,3.0,13.0,88,0.00,,,0.05,Wunderground v.1.15,2013-03-28 02:00:00,
2013-03-27 22:05:00,34.7,31.5,30.11,West,269,2.0,13.0,88,0.00,,,0.05,Wunderground v.1.15,2013-03-28 02:05:00,
2013-03-27 22:10:00,34.7,31.5,30.11,West,277,2.0,13.0,88,0.00,,,0.05,Wunderground v.1.15,2013-03-28 02:10:00,
2013-03-27 22:15:00,34.7,31.5,30.11,NW,306,3.0,13.0,88,0.00,,,0.05,Wunderground v.1.15,2013-03-28 02:15:00,
2013-03-27 22:20:00,34.6,31.4,30.11,WNW,300,2.0,2.0,88,0.00,,,0.05,Wunderground v.1.15,2013-03-28 02:20:00,
2013-03-27 22:25:00,34.6,31.4,30.11,WNW,285,2.0,3.0,88,0.00,,,0.05,Wunderground v.1.15,2013-03-28 02:25:00,
2013-03-27 22:30:00,34.6,31.4,30.11,NNW,340,3.0,13.0,88,0.00,,,0.05,Wunderground v.1.15,2013-03-28 02:30:00,
2013-03-27 22:35:00,34.6,31.4,30.11,NNW,328,3.0,13.0,88,0.00,,,0.05,Wunderground v.1.15,2013-03-28 02:35:00,
2013-03-27 22:40:00,34.6,31.4,30.11,WNW,300,3.0,13.0,88,0.00,,,0.05,Wunderground v.1.15,2013-03-28 02:40:00,
2013-03-27 22:50:00,34.4,31.2,30.11,NW,326,1.0,13.0,88,0.00,,,0.05,Wunderground v.1.15,2013-03-28 02:50:00,
2013-03-27 22:55:00,34.3,31.1,30.10,North,354,2.0,13.0,88,0.00,,,0.05,Wunderground v.1.15,2013-03-28 02:55:00,
2013-03-27 23:00:00,34.3,31.1,30.11,North,11,2.0,13.0,88,0.00,,,0.05,Wunderground v.1.15,2013-03-28 03:00:00,
2013-03-27 23:05:00,34.3,31.1,30.10,North,9,2.0,13.0,88,0.00,,,0.05,Wunderground v.1.15,2013-03-28 03:05:00,
2013-03-27 23:10:00,34.3,31.1,30.11,NNW,340,2.0,13.0,88,0.00,,,0.05,Wunderground v.1.15,2013-03-28 03:10:00,
2013-03-27 23:15:00,34.2,31.0,30.10,North,356,2.0,13.0,88,0.00,,,0.05,Wunderground v.1.15,2013-03-28 03:15:00,
2013-03-27 23:20:00,34.2,31.0,30.11,West,276,2.0,2.0,88,0.00,,,0.05,Wunderground v.1.15,2013-03-28 03:20:00,
2013-03-27 23:25:00,34.2,31.0,30.10,NNW,332,2.0,13.0,88,0.00,,,0.05,Wunderground v.1.15,2013-03-28 03:25:00,
2013-03-27 23:30:00,34.2,31.0,30.10,North,9,2.0,13.0,88,0.00,,,0.05,Wunderground v.1.15,2013-03-28 03:30:00,
2013-03-27 23:35:00,34.1,31.2,30.10,NNW,331,1.0,13.0,89,0.00,,,0.05,Wunderground v.1.15,2013-03-28 03:35:00,
2013-03-27 23:40:00,34.1,30.9,30.10,NW,311,2.0,2.0,88,0.00,,,0.05,Wunderground v.1.15,2013-03-28 03:40:00,
2013-03-27 23:45:00,34.1,30.9,30.10,NW,322,2.0,13.0,88,0.00,,,0.05,Wunderground v.1.15,2013-03-28 03:45:00,
2013-03-27 23:50:00,34.1,30.9,30.10,NW,326,2.0,2.0,88,0.00,,,0.05,Wunderground v.1.15,2013-03-28 03:50:00,
2013-03-27 23:55:00,34.0,30.8,30.10,NW,315,2.0,13.0,88,0.00,,,0.05,Wunderground v.1.15,2013-03-28 03:55:00,